DW8947 Weather Reports


time (UTC)temp
C
wind
direction
speed
KPH
gust
KPH
rain 1hr
cm
rain 24hr
cm
rain mn
cm
humidity
%
barometer
mb
20260904171204 15 61 0.0 0.0 0.00 0.00 0.00 85 1012.1
20260904170704 15 61 0.0 0.0 0.00 0.00 0.00 85 1012.1
20260904170204 15 61 0.0 3.2 0.00 0.00 0.00 86 1012.0
20260904165204 15 61 0.0 3.2 0.00 0.00 0.00 85 1012.0
20260904164704 15 61 1.6 3.2 0.00 0.00 0.00 85 1011.9
20260904163704 14 273 0.0 3.2 0.00 0.00 0.00 85 1012.0
20260904162704 14 273 0.0 3.2 0.00 0.00 0.00 86 1012.0
20260904161705 14 318 0.0 3.2 0.00 0.00 0.00 88 1012.0
20260904160705 13 341 0.0 3.2 0.00 0.00 0.00 89 1012.0
20260904154704 12 116 0.0 3.2 0.00 0.00 0.00 91 1011.9
20260904154205 12 116 0.0 3.2 0.00 0.00 0.00 91 1011.9
20260904152204 12 116 0.0 0.0 0.00 0.00 0.00 92 1011.8
20260904151704 12 116 0.0 0.0 0.00 0.00 0.00 92 1011.7
20260904151205 12 116 0.0 0.0 0.00 0.00 0.00 92 1011.7
20260904150705 12 116 0.0 0.0 0.00 0.00 0.00 92 1011.6
20260904150204 12 116 0.0 0.0 0.00 0.00 0.00 92 1011.5
20260904145704 12 116 0.0 0.0 0.00 0.00 0.00 92 1011.4
20260904145204 12 116 0.0 0.0 0.00 0.00 0.00 92 1011.3
20260904144704 12 116 0.0 0.0 0.00 0.00 0.00 92 1011.3
20260904142704 12 116 0.0 0.0 0.00 0.00 0.00 92 1011.2
20260904142205 12 116 0.0 0.0 0.00 0.00 0.00 92 1011.1
20260904141705 12 116 0.0 0.0 0.00 0.03 0.00 92 1011.1
20260904140704 12 116 0.0 0.0 0.00 0.03 0.00 92 1011.0
20260904135704 12 116 0.0 0.0 0.00 0.03 0.00 92 1010.9
20260904131204 12 116 0.0 0.0 0.00 0.03 0.00 91 1010.2
20260904130705 12 116 0.0 0.0 0.00 0.03 0.00 91 1010.2
20260904130204 12 116 0.0 3.2 0.00 0.03 0.00 91 1010.1
20260904125205 12 116 0.0 3.2 0.00 0.03 0.00 91 1010.1
20260904123205 12 116 0.0 3.2 0.00 0.03 0.00 91 1010.1
20260904122704 12 116 0.0 3.2 0.00 0.03 0.00 90 1010.1
20260904120704 12 116 0.0 3.2 0.00 0.03 0.00 91 1010.1
20260904114205 12 116 0.0 3.2 0.00 0.03 0.00 90 1009.7
20260904113704 12 116 0.0 3.2 0.00 0.03 0.00 90 1009.6
20260904113205 12 116 0.0 0.0 0.00 0.03 0.00 90 1009.6
20260904105704 12 116 0.0 3.2 0.00 0.08 0.00 90 1009.5
20260904104704 12 116 0.0 0.0 0.00 0.08 0.00 89 1009.6
20260904104204 12 116 0.0 0.0 0.00 0.08 0.00 89 1009.5
20260904103705 12 116 0.0 0.0 0.00 0.08 0.00 89 1009.4
20260904102704 12 116 0.0 0.0 0.00 0.08 0.00 89 1009.5
20260904102204 12 116 0.0 0.0 0.00 0.08 0.00 89 1009.5
20260904101204 12 116 0.0 0.0 0.00 0.08 0.00 88 1009.3
20260904100704 12 116 0.0 1.6 0.00 0.08 0.00 88 1009.3
20260904095704 12 116 0.0 3.2 0.00 0.08 0.00 88 1009.1
20260904094705 12 116 0.0 0.0 0.00 0.08 0.00 88 1009.2
20260904092204 12 89 0.0 1.6 0.00 0.08 0.00 86 1009.0
20260904091704 12 69 0.0 0.0 0.00 0.08 0.00 84 1008.9
20260904091204 12 69 0.0 0.0 0.00 0.08 0.00 84 1009.0
20260904090704 12 69 0.0 0.0 0.00 0.08 0.00 85 1009.1
20260904090204 12 69 0.0 0.0 0.00 0.08 0.00 84 1009.1
20260904085204 13 69 0.0 0.0 0.00 0.08 0.00 84 1009.2
20260904084204 13 69 0.0 0.0 0.00 0.08 0.00 85 1009.3
20260904083205 13 69 0.0 0.0 0.00 0.08 0.00 84 1009.4
20260904082204 13 69 0.0 0.0 0.00 0.08 0.00 84 1009.5
20260904080704 13 69 0.0 0.0 0.00 0.08 0.00 82 1009.5
20260904075704 13 69 0.0 0.0 0.00 0.08 0.00 83 1009.4
20260904074704 13 69 0.0 0.0 0.00 0.08 0.00 80 1009.4
20260904074204 13 69 0.0 0.0 0.00 0.08 0.00 80 1009.4
20260904073705 13 69 0.0 0.0 0.00 0.08 0.00 81 1009.3
20260904073205 13 69 0.0 0.0 0.00 0.08 0.00 81 1009.3
20260904070705 13 69 0.0 0.0 0.00 0.08 0.00 80 1009.1
20260904070204 13 69 0.0 0.0 0.00 0.08 0.00 80 1009.1
20260904064704 13 69 0.0 0.0 0.00 0.08 0.08 82 1009.2
20260904063204 13 69 0.0 0.0 0.00 0.08 0.08 80 1009.1
20260904062704 13 69 0.0 0.0 0.00 0.08 0.08 80 1009.1
20260904061204 13 69 0.0 0.0 0.00 0.08 0.08 81 1009.0
20260904060705 13 69 0.0 0.0 0.00 0.08 0.08 79 1008.9
20260904055204 13 69 0.0 0.0 0.00 0.08 0.08 80 1009.0
20260904053204 14 69 0.0 0.0 0.00 0.08 0.08 77 1009.0
20260904051704 14 69 0.0 0.0 0.00 0.08 0.08 75 1009.1
20260904051204 14 69 0.0 0.0 0.00 0.08 0.08 75 1009.1
20260904045704 15 69 0.0 0.0 0.00 0.08 0.08 75 1009.1
20260904044205 15 69 0.0 0.0 0.00 0.08 0.08 75 1009.1
20260904043705 15 69 0.0 0.0 0.00 0.08 0.08 75 1009.1
20260904043205 15 69 0.0 0.0 0.00 0.08 0.08 75 1009.0
20260904042704 15 69 0.0 0.0 0.00 0.08 0.08 76 1009.1
20260904042204 14 69 0.0 0.0 0.00 0.08 0.08 77 1009.2
20260904041704 14 69 0.0 0.0 0.00 0.08 0.08 77 1009.2
20260904040705 14 69 0.0 0.0 0.00 0.08 0.08 78 1009.1
20260904035704 14 69 0.0 0.0 0.00 0.08 0.08 78 1009.0
20260904035204 14 69 0.0 0.0 0.00 0.08 0.08 78 1009.0
20260904034704 14 69 0.0 0.0 0.00 0.08 0.08 77 1008.9
20260904034204 14 69 0.0 0.0 0.00 0.08 0.08 77 1008.8
20260904033204 14 69 0.0 0.0 0.00 0.08 0.08 78 1008.8
20260904032704 15 69 0.0 0.0 0.00 0.08 0.08 78 1008.7
20260904032204 15 69 0.0 0.0 0.00 0.08 0.08 79 1008.6
20260904031204 15 69 0.0 0.0 0.00 0.08 0.08 78 1008.6
20260904025704 15 69 0.0 0.0 0.00 0.08 0.08 77 1008.5
20260904024204 15 69 0.0 0.0 0.00 0.08 0.08 77 1008.5
20260904023704 15 69 0.0 0.0 0.00 0.08 0.08 79 1008.3
20260904023204 15 69 0.0 0.0 0.00 0.08 0.08 79 1008.3
20260904022204 15 69 0.0 0.0 0.00 0.08 0.08 77 1008.2
20260904021704 16 69 0.0 0.0 0.00 0.08 0.08 78 1008.2
20260904021204 16 69 0.0 0.0 0.00 0.08 0.08 77 1008.2
20260904020704 16 69 0.0 0.0 0.00 0.08 0.08 77 1008.2
20260904020204 16 69 0.0 0.0 0.00 0.08 0.08 76 1008.1
20260904015704 16 69 0.0 0.0 0.00 0.08 0.08 76 1008.0
20260904015204 16 69 0.0 0.0 0.00 0.08 0.08 76 1008.0
20260904014704 16 69 0.0 0.0 0.00 0.08 0.08 76 1008.1
20260904014204 16 69 0.0 0.0 0.00 0.08 0.08 74 1008.2
20260904012704 17 69 0.0 0.0 0.00 0.08 0.08 74 1008.1
20260904012204 17 69 0.0 0.0 0.00 0.08 0.08 72 1008.1
20260904011704 17 69 0.0 0.0 0.00 0.08 0.08 74 1008.1
20260904010704 17 69 0.0 3.2 0.00 0.08 0.08 73 1008.0
20260904005704 17 125 0.0 1.6 0.00 0.08 0.08 74 1008.0
20260904004204 17 125 0.0 3.2 0.00 0.08 0.08 72 1007.9
20260904003704 17 125 0.0 1.6 0.00 0.08 0.08 73 1007.9
20260904002704 17 125 0.0 3.2 0.00 0.08 0.08 72 1007.9
20260904001704 17 125 0.0 3.2 0.00 0.08 0.08 72 1007.9
20260904001204 17 125 0.0 3.2 0.00 0.08 0.08 73 1007.9
20260904000704 17 125 0.0 1.6 0.00 0.08 0.08 73 1007.9
20260903234704 17 125 0.0 3.2 0.00 0.08 0.08 75 1007.9
20260903234203 17 125 0.0 3.2 0.00 0.08 0.08 74 1007.9
20260903233204 17 125 0.0 3.2 0.00 0.08 0.08 76 1008.0
20260903232704 17 125 0.0 1.6 0.00 0.08 0.08 72 1008.0
20260903231204 17 128 0.0 3.2 0.00 0.10 0.08 73 1008.0
20260903230704 17 128 0.0 3.2 0.00 0.13 0.08 76 1008.0
20260903225704 17 14 0.0 3.2 0.00 0.18 0.08 73 1008.2
20260903225204 17 14 0.0 3.2 0.00 0.20 0.08 72 1008.1
20260903224204 17 34 0.0 3.2 0.00 0.25 0.08 75 1008.2
20260903223204 17 188 0.0 1.6 0.00 0.28 0.08 74 1008.2
20260903222204 17 186 0.0 0.0 0.00 0.30 0.08 75 1008.2
20260903215704 17 186 1.6 1.6 0.00 0.33 0.08 70 1008.3
20260903214204 17 11 0.0 3.2 0.00 0.36 0.08 72 1008.2
20260903213704 17 11 0.0 1.6 0.00 0.36 0.08 72 1008.1
20260903213204 17 20 0.0 1.6 0.00 0.36 0.08 72 1008.2
20260903211704 17 227 0.0 3.2 0.00 0.38 0.08 73 1008.1
20260903210704 17 213 0.0 3.2 0.00 0.38 0.08 75 1008.1
20260903210204 17 169 0.0 3.2 0.00 0.38 0.08 73 1008.1
20260903205704 17 158 0.0 3.2 0.00 0.38 0.08 74 1008.1
20260903204204 17 154 1.6 3.2 0.00 0.38 0.08 73 1008.0
20260903203205 18 201 1.6 3.2 0.00 0.38 0.08 70 1007.9
20260903202704 18 266 0.0 3.2 0.00 0.38 0.08 74 1007.8
20260903195704 17 222 0.0 3.2 0.00 0.38 0.08 75 1008.0
20260903195205 17 150 0.0 3.2 0.00 0.38 0.08 74 1008.0
20260903193204 17 203 0.0 3.2 0.00 0.43 0.08 76 1007.8
20260903192704 17 179 0.0 3.2 0.00 0.43 0.08 79 1007.8
20260903191704 16 308 1.6 3.2 0.00 0.43 0.08 80 1007.7
20260903191204 16 163 0.0 3.2 0.00 0.43 0.08 81 1007.8
20260903190704 16 173 0.0 3.2 0.00 0.43 0.08 83 1007.8
20260903190203 15 181 0.0 1.6 0.00 0.43 0.08 83 1007.8
20260903185704 15 181 0.0 3.2 0.00 0.43 0.08 82 1007.9
20260903184704 15 181 0.0 3.2 0.00 0.43 0.08 82 1008.0
20260903183704 15 337 0.0 3.2 0.00 0.43 0.08 82 1007.9
20260903182704 15 172 0.0 3.2 0.00 0.43 0.08 83 1007.7
20260903181704 15 308 0.0 1.6 0.00 0.43 0.08 83 1007.7
20260903180705 15 278 1.6 3.2 0.00 0.43 0.08 82 1007.6
20260903175704 15 223 0.0 3.2 0.00 0.43 0.08 84 1007.6
20260903175204 15 138 1.6 3.2 0.00 0.43 0.08 84 1007.6
20260903172204 14 126 1.6 3.2 0.00 0.43 0.08 89 1007.4